User: anonymous   Login
Location: Unspecified
(0.0000°N, 0.0000°E)
Time: 15:28:33
(UTC+00:00)
Language:

PLEIADES 1B - Orbit

View from above orbital plane
View from above orbital plane
View from above satellite
View from above satellite

Ground track
Ground track

The orbit data is extracted from the following two-line orbital elements,

1 39019U 12068A   18146.11089293 -.00000011  00000-0  75646-5 0  9998
2 39019  98.2026 221.3042 0001403  83.4612 276.6750 14.58551936291706
Epoch (UTC): 26 May 2018 02:39:41
Eccentricity: 0.0001403
inclination: 98.2026°
perigee height: 697 km
apogee height: 699 km
right ascension of ascending node: 221.3042°
argument of perigee: 83.4612°
revolutions per day: 14.58551936
mean anomaly at epoch: 276.6750°
orbit number at epoch: 29170

The dashed part of the orbit path shows where the satellite is in the earth's shadow,  

DLR